This is the latest recevied weather packets stored in our database for station/object LZ1PDB-12. If no packets are shown the sender has not sent any weather packets the latest 10 day(s).
| Time | Temp. | Humidity | Pressure | Rain* | Wind** | Luminosity | Snow |
|---|---|---|---|---|---|---|---|
| 1777286347 | 16.11° C | 37% | 1025.7 hPa | - | - | - | - |
| 1777285447 | 16.11° C | 38% | 1025.9 hPa | - | - | - | - |
| 1777284547 | 15.56° C | 39% | 1026 hPa | - | - | - | - |
| 1777283647 | 15.56° C | 39% | 1026.2 hPa | - | - | - | - |
| 1777282747 | 15° C | 39% | 1026.2 hPa | - | - | - | - |
| 1777281847 | 14.44° C | 39% | 1026.3 hPa | - | - | - | - |
| 1777280946 | 14.44° C | 40% | 1026.5 hPa | - | - | - | - |
| 1777280045 | 13.89° C | 40% | 1026.6 hPa | - | - | - | - |
| 1777279145 | 13.89° C | 39% | 1026.7 hPa | - | - | - | - |
| 1777278245 | 13.33° C | 40% | 1026.8 hPa | - | - | - | - |
| 1777277345 | 13.33° C | 40% | 1026.9 hPa | - | - | - | - |
| 1777276444 | 12.78° C | 39% | 1026.8 hPa | - | - | - | - |
| 1777275544 | 12.22° C | 41% | 1026.9 hPa | - | - | - | - |
| 1777274643 | 12.22° C | 41% | 1026.9 hPa | - | - | - | - |
| 1777273743 | 11.67° C | 42% | 1026.8 hPa | - | - | - | - |
| 1777272838 | 12.22° C | 42% | 1026.9 hPa | - | - | - | - |
| 1777271937 | 12.22° C | 42% | 1026.8 hPa | - | - | - | - |
| 1777271037 | 11.67° C | 43% | 1026.8 hPa | - | - | - | - |
| 1777270137 | 11.67° C | 42% | 1026.7 hPa | - | - | - | - |
| 1777269236 | 11.67° C | 42% | 1026.6 hPa | - | - | - | - |
| 1777268336 | 11.67° C | 43% | 1026.5 hPa | - | - | - | - |
| 1777267436 | 12.22° C | 42% | 1026.4 hPa | - | - | - | - |
| 1777266536 | 12.22° C | 42% | 1026.4 hPa | - | - | - | - |
| 1777265636 | 12.22° C | 42% | 1026.4 hPa | - | - | - | - |
| 1777264736 | 12.22° C | 42% | 1026.3 hPa | - | - | - | - |
* Rain since midnight (hover to see other rain measurements)
** Current wind speed in m/s (hover to see current wind gust speed)